ATLAS 5 CENTAUR R/B, 53962

Orbit data source: Space-Track

ATLAS 5 CENTAUR R/B, 53962 is space debris in GEO originally from a launch on Tue, 04 Oct 2022 UTC launched from the Air Force Eastern Test Range (AFETR). Debris objects in space refer to the collection of defunct objects orbiting the Earth. Examples of debris include non-operational satellites, rocket bodies, and fragments generated from explosions, collisions, or faulty payload assembly.

Loading next visibility...
Identifier
53962, 2022-123C
Orbit
GEO
Country
Flag of USUS
Related business
Flag of USUnited Launch Alliance/Lockheed Martin (US)
Manufacturer
ULA Decatur
Mission
Spacecraft
Bus & Motor
CENTAUR SEC, RL10C-1-1
Mass
~2,020 kg wet, 2,020 kg dry
Launch date (UTC)
2022-10-04 (4 years ago)
Launch vehicle
Unknown
Launch site
Air Force Eastern Test Range (AFETR)
Object type
Payload
Rocket body
Debris
Shape & HBR
Cyl + 1 Nozzle, 5.8 m
Radar Cross Section
32.260 m², Large (>1 m²)

Expand to show TLE details & history
Last TLE update: 2 days ago

TLE from 2 days ago
0 ATLAS 5 CENTAUR R/B
1 53962U 22123C   26171.09817742 -.00000081  00000-0  00000-0 0  9990
2 53962   4.3927  99.2534 0307338 295.0143  61.5743  1.07590280 14588
Epoch: 2026-06-20T02:21Z
TLE epoch observation values (Epoch: 2026-06-20T02:21:22.529Z)
Latitude
-0°
Longitude
155.33864°
Altitude
33,290.529 km
Speed
3.192 km/s
True Right ascension
06h 36m 00s
True Declination
0° 00' 00"
Sunlit
Object was in daylight at epoch
Visualization orbit readout
Latitude
Unknown
Longitude
Unknown
Altitude
Unknown
Speed
Unknown
Apparent Right ascension
Unknown
Apparent Declination
Unknown
Sunlit
N/A
Visualization observer readout
Local Sidereal Time
21:56:18
Azimuth
Unknown
Elevation
Unknown
Doppler factor
Unknown
Orbital elements
Apogee altitude
35,089.727 km
Perigee altitude
32,616.799 km
Semi-major axis
40,231.4 km
Eccentricity
0.03073
Inclination
4.3927°
RAAN
99.2534°
Arg. of periapsis
295.0143°
True anomaly
64.72758°
Mean anomaly
61.5743°
Eccentric anomaly
63.14531°
Mean motion
0.26896 °/min
Orbital period
1,338.47 mins
BSTAR
0
Loading maneuver chart data...
Computing Atmospheric mass density...
Loading historical data...
Loading historical data...
Loading historical data...
Loading historical data...
Loading historical data...
Loading historical data...
Loading historical data...
Other satellites on launch #123 in the year 2022 (2022-10-04 UTC)

Documentation

Showing up to 5 results
|